FW5399 Weather Reports


Display with metric or nautical units.
time (UTC)temp
F
wind
direction
speed
MPH
gust
MPH
rain 1hr
in
rain 24hr
in
rain mn
in
humidity
%
barometer
mb
20260902053015 60 306 0.0 6.0 0.00 0.00 0.00 71 1016.2
20260902052924 60 284 0.0 6.0 0.00 0.00 0.00 71 1016.0
20260902052015 60 315 0.0 5.0 0.00 0.00 0.00 71 1016.0
20260902051514 61 307 0.0 5.0 0.00 0.00 0.00 71 1016.0
20260902051014 61 284 1.0 5.0 0.00 0.00 0.00 71 1015.9
20260902050933 61 289 0.0 5.0 0.00 0.00 0.00 70 1015.8
20260902050421 61 307 0.0 2.0 0.00 0.00 0.00 69 1015.8
20260902045515 62 276 0.0 2.0 0.00 0.00 0.00 69 1015.8
20260902045418 62 312 0.0 3.0 0.00 0.00 0.00 67 1015.8
20260902044512 62 322 0.0 6.0 0.00 0.00 0.00 67 1015.8
20260902044012 63 2 0.0 6.0 0.00 0.00 0.00 66 1015.8
20260902043512 63 271 0.0 3.0 0.00 0.00 0.00 66 1015.8
20260902043409 63 289 0.0 2.0 0.00 0.00 0.00 65 1015.7
20260902042507 64 312 0.0 2.0 0.00 0.00 0.00 65 1015.8
20260902042001 64 291 0.0 7.0 0.00 0.00 0.00 62 1015.8
20260902041453 65 311 0.0 7.0 0.00 0.00 0.00 62 1015.8
20260902040947 66 311 0.0 4.0 0.00 0.00 0.00 59 1016.0
20260902040441 66 335 0.0 5.0 0.00 0.00 0.00 62 1015.9
20260902035935 65 317 1.0 5.0 0.00 0.00 0.00 64 1015.7
20260902035557 65 303 0.0 4.0 0.00 0.00 0.00 64 1015.7
20260902034417 66 337 0.0 4.0 0.00 0.00 0.00 60 1015.6
20260902033912 66 320 0.0 5.0 0.00 0.00 0.00 61 1015.6
20260902033404 67 336 1.0 5.0 0.00 0.00 0.00 59 1015.7
20260902033033 67 340 0.0 4.0 0.00 0.00 0.00 63 1015.7
20260902031846 67 322 1.0 8.0 0.00 0.00 0.00 58 1015.9
20260902031821 68 322 1.0 7.0 0.00 0.00 0.00 56 1016.0
20260902030834 68 265 1.0 7.0 0.00 0.00 0.00 59 1016.1
20260902030724 67 324 1.0 6.0 0.00 0.00 0.00 59 1016.0
20260902025822 68 335 1.0 6.0 0.00 0.00 0.00 58 1016.1
20260902025317 68 323 1.0 5.0 0.00 0.00 0.00 60 1016.1
20260902024811 67 345 0.0 5.0 0.00 0.00 0.00 57 1016.1
20260902024304 66 3 1.0 4.0 0.00 0.00 0.00 59 1016.2
20260902024153 66 317 1.0 4.0 0.00 0.00 0.00 59 1016.3
20260902023253 67 346 1.0 5.0 0.00 0.00 0.00 58 1016.4
20260902022747 66 322 1.0 6.0 0.00 0.00 0.00 63 1016.5
20260902022241 65 317 1.0 9.0 0.00 0.00 0.00 62 1016.5
20260902021734 66 336 1.0 9.0 0.00 0.00 0.00 61 1016.4
20260902021228 67 296 1.0 4.0 0.00 0.00 0.00 59 1016.4
20260902020722 68 346 1.0 4.0 0.00 0.00 0.00 59 1016.3
20260902020216 68 352 1.0 4.0 0.00 0.00 0.00 60 1016.2
20260902015711 67 305 1.0 5.0 0.00 0.00 0.00 64 1016.3
20260902015207 66 312 1.0 7.0 0.00 0.00 0.00 63 1016.4
20260902014658 66 26 1.0 7.0 0.00 0.00 0.00 61 1016.4
20260902014152 66 338 1.0 5.0 0.00 0.00 0.00 65 1016.5
20260902013647 66 264 1.0 5.0 0.00 0.00 0.00 64 1016.5
20260902013141 65 278 1.0 5.0 0.00 0.00 0.00 64 1016.5
20260902012812 66 300 0.0 5.0 0.00 0.00 0.00 64 1016.5
20260902011623 66 251 1.0 4.0 0.00 0.00 0.00 63 1016.8
20260902011123 65 265 0.0 3.0 0.00 0.00 0.00 64 1017.0
20260902010104 64 343 0.0 3.0 0.00 0.00 0.00 63 1017.2
20260902005558 65 356 1.0 5.0 0.00 0.00 0.00 65 1017.3
20260902005053 65 340 1.0 5.0 0.00 0.00 0.00 62 1017.3
20260902004546 65 209 0.0 3.0 0.00 0.00 0.00 62 1017.4
20260902004041 65 348 0.0 4.0 0.00 0.00 0.00 65 1017.4
20260902003537 64 338 1.0 4.0 0.00 0.00 0.00 65 1017.5
20260902003037 65 270 1.0 4.0 0.00 0.00 0.00 62 1017.5
20260902003009 65 291 1.0 9.0 0.00 0.00 0.00 64 1017.5
20260902002034 65 12 2.0 9.0 0.00 0.00 0.00 64 1017.6
20260902001954 65 337 1.0 6.0 0.00 0.00 0.00 64 1017.5
20260902001040 64 35 1.0 8.0 0.00 0.00 0.00 66 1017.5
20260902000540 63 258 1.0 8.0 0.00 0.00 0.00 67 1017.5
20260902000038 62 310 1.0 9.0 0.00 0.00 0.00 69 1017.6
20260901235535 62 274 1.0 9.0 0.00 0.00 0.00 66 1017.7
20260901235034 63 4 1.0 7.0 0.00 0.00 0.00 66 1017.8
20260901234536 63 355 1.0 7.0 0.00 0.00 0.00 66 1017.7
20260901234036 63 338 1.0 7.0 0.00 0.00 0.00 68 1017.8
20260901234000 63 291 2.0 7.0 0.00 0.00 0.00 65 1017.8
20260901233036 64 319 2.0 10.0 0.00 0.00 0.00 63 1017.9
20260901232944 64 326 2.0 10.0 0.00 0.00 0.00 64 1017.9
20260901232032 64 355 2.0 9.0 0.00 0.00 0.00 65 1017.9
20260901231527 64 319 2.0 7.0 0.00 0.00 0.00 64 1017.9
20260901231027 64 242 1.0 8.0 0.00 0.00 0.00 68 1018.0
20260901230527 62 20 1.0 8.0 0.00 0.00 0.00 71 1017.9
20260901230028 61 255 1.0 6.0 0.00 0.00 0.00 68 1018.1
20260901230020 61 323 1.0 6.0 0.00 0.00 0.00 70 1018.2
20260901225028 61 326 1.0 6.0 0.00 0.00 0.00 68 1018.0
20260901224948 61 149 1.0 5.0 0.00 0.00 0.00 70 1018.1
20260901224027 61 318 1.0 9.0 0.00 0.00 0.00 69 1017.8
20260901223528 60 317 1.0 9.0 0.00 0.00 0.00 71 1017.9
20260901223222 61 306 1.0 9.0 0.00 0.00 0.00 71 1017.9
20260901222026 61 317 1.0 8.0 0.00 0.00 0.00 70 1018.0
20260901221938 61 120 1.0 6.0 0.00 0.00 0.00 69 1018.1
20260901221027 61 342 1.0 6.0 0.00 0.00 0.00 68 1018.0
20260901220528 61 341 1.0 7.0 0.00 0.00 0.00 69 1018.4
20260901220026 60 315 2.0 7.0 0.00 0.00 0.00 68 1018.2
20260901215526 61 346 1.0 7.0 0.00 0.00 0.00 69 1018.0
20260901215022 62 346 1.0 5.0 0.00 0.00 0.00 69 1018.1
20260901214529 61 311 2.0 7.0 0.00 0.00 0.00 70 1018.1
20260901214444 60 329 2.0 9.0 0.00 0.00 0.00 69 1018.2
20260901213527 60 196 2.0 9.0 0.00 0.00 0.00 69 1018.3
20260901213026 60 305 2.0 13.0 0.00 0.00 0.00 69 1018.4
20260901212525 60 312 2.0 13.0 0.00 0.00 0.00 70 1018.5
20260901212022 60 329 1.0 8.0 0.00 0.00 0.00 70 1018.5
20260901211519 61 357 1.0 7.0 0.00 0.00 0.00 69 1018.5
20260901211423 60 2 1.0 5.0 0.00 0.00 0.00 69 1018.5
20260901210516 60 313 1.0 6.0 0.00 0.00 0.00 70 1018.4
20260901210017 60 354 1.0 6.0 0.00 0.00 0.00 69 1018.2
20260901205516 60 334 1.0 6.0 0.00 0.00 0.00 71 1018.1
20260901205016 60 2 1.0 5.0 0.00 0.00 0.00 70 1018.3
20260901204516 60 270 1.0 5.0 0.00 0.00 0.00 70 1018.3
20260901204021 59 338 1.0 6.0 0.00 0.00 0.00 71 1018.3
20260901203929 59 322 1.0 6.0 0.00 0.00 0.00 71 1018.4
20260901203018 58 293 1.0 5.0 0.00 0.00 0.00 72 1018.3
20260901202515 58 348 1.0 6.0 0.00 0.00 0.00 73 1018.4
20260901202013 58 330 1.0 6.0 0.00 0.00 0.00 72 1018.3
20260901201506 58 347 1.0 6.0 0.00 0.00 0.00 73 1018.2
20260901201002 57 349 0.0 6.0 0.00 0.00 0.00 73 1018.2
20260901200455 57 5 1.0 5.0 0.00 0.00 0.00 74 1018.2
20260901195951 57 346 1.0 5.0 0.00 0.00 0.00 74 1018.2
20260901195443 57 310 0.0 3.0 0.00 0.00 0.00 74 1018.2
20260901194937 56 287 0.0 3.0 0.00 0.00 0.00 75 1018.2
20260901194432 56 242 0.0 2.0 0.00 0.00 0.00 74 1018.1
20260901194104 56 285 0.0 4.0 0.00 0.00 0.00 75 1018.0
20260901192913 56 286 1.0 7.0 0.00 0.00 0.00 75 1017.9
20260901192407 55 319 0.0 3.0 0.00 0.00 0.00 76 1017.8
20260901191902 54 290 0.0 3.0 0.00 0.00 0.00 77 1017.8
20260901191355 54 281 0.0 2.0 0.00 0.00 0.00 77 1017.7
20260901190851 53 272 0.0 4.0 0.00 0.00 0.00 78 1017.7
20260901190343 53 233 0.0 3.0 0.00 0.00 0.00 78 1017.6
20260901190254 53 273 0.0 1.0 0.00 0.00 0.00 78 1017.5
20260901185332 53 272 1.0 4.0 0.00 0.00 0.00 78 1017.5
20260901184825 52 193 1.0 6.0 0.00 0.00 0.00 78 1017.4
20260901184321 52 243 1.0 6.0 0.00 0.00 0.00 78 1017.5
20260901183813 52 303 1.0 6.0 0.00 0.00 0.00 78 1017.6
20260901183307 51 293 0.0 6.0 0.00 0.00 0.00 79 1017.5
20260901182938 51 246 1.0 4.0 0.00 0.00 0.00 78 1017.4
20260901181752 51 251 1.0 13.0 0.00 0.00 0.00 78 1017.6
20260901181244 51 241 0.0 4.0 0.00 0.00 0.00 78 1017.5
20260901180738 51 274 1.0 4.0 0.00 0.00 0.00 78 1017.3
20260901180234 51 244 1.0 4.0 0.00 0.00 0.00 78 1017.3
20260901175736 51 212 1.0 5.0 0.00 0.00 0.00 79 1017.2
20260901175236 51 133 1.0 5.0 0.00 0.00 0.00 78 1017.2
20260901174736 51 224 0.0 3.0 0.00 0.00 0.00 78 1017.0
20260901174235 51 289 0.0 3.0 0.00 0.00 0.00 77 1017.0
20260901174214 51 255 1.0 4.0 0.00 0.00 0.00 77 1016.9
20260901173232 51 204 1.0 5.0 0.00 0.00 0.00 76 1016.8
20260901172732 51 219 1.0 6.0 0.00 0.00 0.00 77 1016.5
20260901172232 51 242 1.0 7.0 0.00 0.00 0.00 77 1016.4
20260901171738 51 231 1.0 7.0 0.00 0.00 0.00 77 1016.4
20260901171236 51 259 1.0 5.0 0.00 0.00 0.00 76 1016.3
20260901170732 51 229 0.0 3.0 0.00 0.00 0.00 76 1016.3
20260901170231 51 215 0.0 3.0 0.00 0.00 0.00 76 1016.7
20260901165732 51 245 1.0 9.0 0.00 0.00 0.00 76 1016.5
20260901165231 51 182 1.0 9.0 0.00 0.00 0.00 75 1016.9
20260901165129 51 265 1.0 9.0 0.00 0.00 0.00 75 1016.7
20260901164625 51 328 2.0 9.0 0.00 0.00 0.00 75 1016.7
20260901164125 51 277 2.0 9.0 0.00 0.00 0.00 75 1016.7
20260901163228 51 305 2.0 10.0 0.00 0.00 0.00 75 1016.3
20260901162726 51 157 2.0 10.0 0.00 0.00 0.00 75 1016.2
20260901162226 51 267 1.0 7.0 0.00 0.00 0.00 75 1016.2
20260901162209 51 234 1.0 7.0 0.00 0.00 0.00 76 1016.2
20260901161226 51 237 1.0 6.0 0.00 0.00 0.00 75 1015.8
20260901160727 51 259 1.0 6.0 0.00 0.00 0.00 75 1016.2
20260901160624 51 252 1.0 6.0 0.00 0.00 0.00 76 1016.3
20260901155725 51 289 1.0 6.0 0.00 0.00 0.00 75 1016.2
20260901155223 50 284 1.0 6.0 0.00 0.00 0.00 76 1016.3
20260901154724 51 4 1.0 6.0 0.00 0.00 0.00 76 1016.1
20260901154226 50 242 1.0 6.0 0.00 0.00 0.00 76 1016.3
20260901153725 50 289 0.0 3.0 0.00 0.00 0.00 77 1016.3
20260901153224 50 347 0.0 3.0 0.00 0.00 0.00 78 1016.3
20260901152724 50 255 0.0 0.0 0.00 0.00 0.00 77 1016.2
20260901152422 51 254 0.0 7.0 0.00 0.00 0.00 76 1016.3
20260901151224 51 217 0.0 2.0 0.00 0.00 0.00 76 1016.3
20260901150733 51 296 1.0 4.0 0.00 0.00 0.00 75 1016.4
20260901150214 51 225 1.0 4.0 0.00 0.00 0.00 75 1016.4
20260901145709 51 287 1.0 4.0 0.00 0.00 0.00 76 1016.3
20260901145214 51 272 1.0 5.0 0.00 0.00 0.00 76 1016.5
20260901144655 51 234 0.0 5.0 0.00 0.00 0.00 76 1016.8
20260901144152 51 330 0.0 1.0 0.00 0.00 0.00 77 1016.8
20260901143657 51 300 0.0 1.0 0.00 0.00 0.00 77 1017.0
20260901143140 51 291 0.0 4.0 0.00 0.00 0.00 77 1017.1
20260901142645 51 290 1.0 4.0 0.00 0.00 0.00 77 1017.1
20260901142127 51 231 0.0 4.0 0.00 0.00 0.00 76 1017.2
20260901141634 51 271 0.0 2.0 0.00 0.00 0.00 77 1017.2
20260901141127 51 319 0.0 2.0 0.00 0.00 0.00 77 1017.4
20260901140609 51 239 0.0 2.0 0.00 0.00 0.00 77 1017.4
20260901140115 51 208 1.0 4.0 0.00 0.00 0.00 76 1017.5
20260901135556 51 249 0.0 4.0 0.00 0.00 0.00 77 1017.6
20260901135451 51 251 0.0 0.0 0.00 0.00 0.00 79 1017.6
20260901134544 51 251 0.0 0.0 0.00 0.00 0.00 78 1017.6
20260901134038 51 251 0.0 0.0 0.00 0.00 0.00 78 1017.7
20260901133532 51 251 0.0 2.0 0.00 0.00 0.00 78 1017.7
20260901133027 51 251 0.0 2.0 0.00 0.00 0.00 77 1017.7
20260901132527 51 248 0.0 2.0 0.00 0.00 0.00 77 1017.5
20260901132024 51 193 0.0 2.0 0.00 0.00 0.00 78 1017.5
20260901131934 51 193 0.0 2.0 0.00 0.00 0.00 78 1017.5
20260901131021 50 239 0.0 3.0 0.00 0.00 0.00 79 1017.5
20260901130522 51 239 0.0 3.0 0.00 0.00 0.00 79 1017.5
20260901130021 51 244 0.0 1.0 0.00 0.00 0.00 78 1017.4
20260901125654 51 297 0.0 0.0 0.00 0.00 0.00 78 1017.5
20260901124518 51 296 0.0 2.0 0.00 0.00 0.00 76 1017.4
20260901124018 51 334 0.0 2.0 0.00 0.00 0.00 76 1017.4
20260901123517 51 329 0.0 2.0 0.00 0.00 0.00 77 1017.3
20260901123015 51 260 0.0 7.0 0.00 0.00 0.00 77 1017.5
20260901122940 50 275 0.0 7.0 0.00 0.00 0.00 78 1017.4
20260901122431 50 281 0.0 0.0 0.00 0.00 0.00 79 1017.3
20260901121513 50 291 0.0 0.0 0.00 0.00 0.00 79 1017.3
20260901121409 50 291 0.0 0.0 0.00 0.00 0.00 78 1016.9
20260901120515 51 291 0.0 4.0 0.00 0.00 0.00 77 1016.9
20260901120012 51 291 0.0 4.0 0.00 0.00 0.00 77 1016.9
20260901115511 50 294 0.0 3.0 0.00 0.00 0.00 77 1016.8
20260901115005 51 278 0.0 2.0 0.00 0.00 0.00 77 1016.7
20260901114501 51 262 1.0 8.0 0.00 0.00 0.00 76 1016.7
20260901113953 51 330 1.0 8.0 0.00 0.00 0.00 76 1016.7
20260901113448 51 327 0.0 3.0 0.00 0.00 0.00 76 1016.5
20260901112941 51 333 0.0 5.0 0.00 0.00 0.00 76 1016.5
20260901112435 51 348 1.0 5.0 0.00 0.00 0.00 76 1016.4
20260901111932 51 334 1.0 4.0 0.00 0.00 0.00 76 1016.4
20260901111423 51 313 1.0 9.0 0.00 0.00 0.00 76 1016.3
20260901110918 51 303 0.0 9.0 0.00 0.00 0.00 77 1016.3
20260901110411 51 295 0.0 11.0 0.00 0.00 0.00 76 1016.3
20260901105905 50 282 0.0 11.0 0.00 0.00 0.00 77 1016.4
20260901105402 50 307 0.0 4.0 0.00 0.00 0.00 77 1016.5
20260901105054 51 306 0.0 1.0 0.00 0.00 0.00 76 1016.4
20260901104955 51 278 0.0 2.0 0.00 0.00 0.00 76 1016.4
20260901103336 51 323 0.0 4.0 0.00 0.00 0.00 76 1016.2
20260901103227 50 296 0.0 4.0 0.00 0.00 0.00 76 1016.3
20260901102324 50 322 0.0 4.0 0.00 0.00 0.00 78 1016.3
20260901101817 50 258 0.0 2.0 0.00 0.00 0.00 77 1016.4
20260901101704 50 274 0.0 1.0 0.00 0.00 0.00 77 1016.2
20260901100807 51 273 0.0 1.0 0.00 0.00 0.00 76 1016.3
20260901100302 51 302 0.0 1.0 0.00 0.00 0.00 75 1016.2
20260901095754 52 302 0.0 1.0 0.00 0.00 0.00 74 1016.4
20260901095247 52 303 0.0 4.0 0.00 0.00 0.00 74 1016.3
20260901094742 52 297 0.0 4.0 0.00 0.00 0.00 73 1016.3
20260901094235 53 319 0.0 3.0 0.00 0.00 0.00 73 1016.3
20260901093732 53 258 0.0 4.0 0.00 0.00 0.00 73 1016.3
20260901093223 52 351 0.0 5.0 0.00 0.00 0.00 73 1016.3
20260901092717 52 343 0.0 5.0 0.00 0.00 0.00 74 1016.3
20260901092211 52 285 0.0 4.0 0.00 0.00 0.00 74 1016.1
20260901091707 52 335 0.0 4.0 0.00 0.00 0.00 75 1016.1
20260901091202 52 17 0.0 1.0 0.00 0.00 0.00 76 1015.9
20260901090653 52 308 0.0 1.0 0.00 0.00 0.00 76 1016.0
20260901090148 52 317 0.0 1.0 0.00 0.00 0.00 76 1016.0
20260901085641 52 322 0.0 1.0 0.00 0.00 0.00 76 1015.8
20260901085533 52 319 0.0 2.0 0.00 0.00 0.00 76 1015.9
20260901084815 52 337 0.0 2.0 0.00 0.00 0.00 76 1015.7
20260901083617 52 303 0.0 5.0 0.00 0.00 0.00 77 1015.8
20260901083111 51 334 0.0 5.0 0.00 0.00 0.00 78 1015.7
20260901082605 51 296 0.0 2.0 0.00 0.00 0.00 78 1015.8
20260901082102 51 296 0.0 2.0 0.00 0.00 0.00 78 1015.6
20260901081554 51 296 0.0 1.0 0.00 0.00 0.00 77 1015.7
20260901081047 52 297 0.0 1.0 0.00 0.00 0.00 76 1015.5
20260901080543 52 318 0.0 1.0 0.00 0.00 0.00 76 1015.4
20260901080041 53 310 0.0 3.0 0.00 0.00 0.00 75 1015.5
20260901075540 53 32 0.0 4.0 0.00 0.00 0.00 75 1015.4
20260901075040 53 326 0.0 4.0 0.00 0.00 0.00 75 1015.4
20260901074541 53 286 0.0 2.0 0.00 0.00 0.00 74 1015.4
20260901074509 53 268 0.0 3.0 0.00 0.00 0.00 74 1015.2
20260901073536 53 23 0.0 5.0 0.00 0.00 0.00 74 1015.2
20260901073434 53 317 0.0 5.0 0.00 0.00 0.00 74 1015.2
20260901072543 53 254 0.0 6.0 0.00 0.00 0.00 75 1015.2
20260901072053 53 329 0.0 6.0 0.00 0.00 0.00 75 1015.1
20260901071553 53 344 0.0 2.0 0.00 0.00 0.00 76 1015.0
20260901071038 53 329 0.0 1.0 0.00 0.00 0.00 76 1015.1
20260901070535 53 313 0.0 1.0 0.00 0.00 0.00 76 1015.1
20260901070037 52 317 0.0 1.0 0.00 0.00 0.00 78 1015.1
20260901065536 52 304 0.0 0.0 0.00 0.00 0.00 80 1015.1
20260901065032 51 279 0.0 0.0 0.00 0.00 0.00 82 1014.9
20260901064930 51 275 0.0 0.0 0.00 0.00 0.00 85 1014.8
20260901064031 51 270 0.0 0.0 0.00 0.00 0.00 84 1014.8
20260901063532 51 270 0.0 1.0 0.00 0.00 0.00 84 1014.7
20260901063030 51 270 0.0 1.0 0.00 0.00 0.00 83 1014.7
20260901062531 51 271 0.0 1.0 0.00 0.00 0.00 82 1014.5
20260901062428 51 272 0.0 0.0 0.00 0.00 0.00 82 1014.4
20260901061532 51 233 0.0 0.0 0.00 0.00 0.00 81 1014.4
20260901061030 51 233 0.0 0.0 0.00 0.00 0.00 80 1014.3
20260901060531 51 233 0.0 0.0 0.00 0.00 0.00 79 1014.3
20260901060033 52 233 0.0 0.0 0.00 0.00 0.00 77 1014.1
20260901055529 53 233 0.0 0.0 0.00 0.00 0.00 75 1014.0
20260901055033 53 233 0.0 0.0 0.00 0.00 0.00 74 1014.0
20260901054531 54 233 0.0 0.0 0.00 0.00 0.00 71 1014.0
20260901054031 55 233 0.0 0.0 0.00 0.00 0.00 68 1013.9
20260901053933 56 233 0.0 1.0 0.00 0.00 0.00 66 1013.8